Regional Weather Roundup
Issued by NWS

Home | Current Version | Previous Version | Text Only | Print | Product List | Glossary On
Versions: 1 2 3 4 5 6 7 8 9 10 11 12 13 14 15 16 17 18 19 20 21 22 23 24 25 26 27 28 29 30 31 32 33 34 35 36 37 38 39 40 41 42 43 44 45 46 47 48 49 50
000
ASUS45 KTFX 171619
RWRMT
MONTANA HOURLY WEATHER ROUNDUP
NATIONAL WEATHER SERVICE GREAT FALLS MT
1019 AM MDT THU APR 17 2014

NOTE: "FAIR" INDICATES FEW OR NO CLOUDS BELOW 12000 FEET WITH NO
SIGNIFICANT WEATHER AND/OR OBSTRUCTIONS TO VISIBILITY.

* THESE STATIONS ARE NOT UNDER NWS QUALITY CONTROL. THEY DO NOT
   REPORT WEATHER SUCH AS PRECIPITATION OR FOG.

MTZ001>007-043-171700-
WEST OF THE DIVIDE
CITY           SKY/WX    TMP DP  RH WIND       PRES   REMARKS
KALISPELL      LGT RAIN  45  39  80 S14       29.86F
MISSOULA       PTSUNNY   46  36  68 SE3       29.90F
BUTTE          PTCLDY    45  19  35 CALM      29.93F
MULLAN PASS    LGT SNOW  30  30 100 S5        29.83F VSB M1/4 WCI  25
* ESSEX        N/A       39  37  93 N/A        N/A
* LINCOLN      N/A       37  31  79 SE3        N/A
* LOOKOUT PASS N/A       37  37 100 S3         N/A
* PLAINS APT   PTSUNNY   46  37  71 CALM      29.89F
* POLSON       N/A       44  42  93 SW1        N/A
* RONAN APT    CLOUDY    48  37  66 N/A        N/A
* SEELEY LAKE  N/A       40  37  89 NE2        N/A
* THOMP F APT  PTSUNNY   43  17  35 SE4        N/A
* YAAK HILL    N/A       44  39  83 E2G7       N/A
$$

MTZ008-052>055-171700-
SOUTHWEST MONTANA
CITY           SKY/WX    TMP DP  RH WIND       PRES   REMARKS
BOZEMAN        PTSUNNY   46  25  44 VRB3      29.94F
DILLON         PTCLDY    43  19  38 SW10      29.95S
W YELLOWSTONE  N/A       42  19  40 SW5G11     N/A
* THREE FORKS  PTSUNNY   48  30  50 N/A        N/A
* BOULDER HILL N/A       39  22  51 SW14       N/A   WCI  31
* MONIDA PASS  N/A       37  15  41 SE12G17    N/A   WCI  29
* RAYNOLDS PAS N/A       28  11  49 SE22       N/A   WCI  14
* WHITEHALL    N/A       46  26  46 S3         N/A
* WISE RIVER   N/A       38  27  65 E4         N/A
$$

MTZ009>010-012-014-046-048-049-054-171700-
EAST SLOPES AND CENTRAL MONTANA
CITY           SKY/WX    TMP DP  RH WIND       PRES   REMARKS
CUT BANK       CLOUDY    32  28  85 CALM      29.83S
GREAT FALLS    CLOUDY    46  30  54 SW16      29.86S
HELENA         PTSUNNY   45  28  51 VRB3      29.90F
MALMSTROM AFB  CLOUDY    50  30  46 SW21      29.84S
* CONRAD       PTSUNNY   46  37  71 S9         N/A
* DEARBORN     N/A       49  28  44 S9         N/A
* EAST GLACIER N/A       36  32  85 W17G26     N/A   WCI  26
* MONARCH      N/A       40  22  49 SW12G19    N/A   WCI  33
* PENDROY      N/A       40  31  70 S4         N/A
* ROGERS PASS  N/A       36  27  70 E12G17     N/A   WCI  28
* SAINT MARY   N/A       39  31  73 S6G14      N/A   WCI  35
* SWEET GRASS  N/A       31  31 100 S17        N/A   WCI  20
* WHITE SULPH  N/A       44  24  45 S12G17     N/A
$$

MTZ011-013-016-021-035-040-045-047-050-051-171700-
NORTH CENTRAL MONTANA
CITY           SKY/WX    TMP DP  RH WIND       PRES   REMARKS
HAVRE          PTCLDY    39  28  65 E6        29.89F WCI  35
LEWISTOWN      PTCLDY    45  36  71 CALM      29.90F
* CHINOOK      PTCLDY    39  28  65 E15G20    29.90F WCI  31
* FORT BENTON  PTCLDY    48  34  59 CALM      29.88F
* MALTA APT    PTSUNNY   39  25  57 E12       29.94F WCI  32
* CHESTER      N/A       39  31  73 S7G15      N/A   WCI  34
* DENTON       N/A       48  32  54 S14        N/A
* GEYSER       N/A       47  28  48 SW21G27    N/A
* JUDITH GAP   N/A       32  32 100 S11        N/A   WCI  23
* LOMA         N/A       43  32  65 SE9        N/A
$$

MTZ017>020-022>027-061-062-171700-
NORTHEAST MONTANA
CITY           SKY/WX    TMP DP  RH WIND       PRES   REMARKS
GLASGOW        CLOUDY    34  25  70 SE16      30.03F WCI  24
GLENDIVE       CLOUDY    39  27  62 SE10      30.09F WCI  32
JORDAN         PTCLDY    45  30  56 S14       29.98F
SIDNEY         CLOUDY    39  25  57 SE17      30.15F WCI  30
WOLF POINT     CLOUDY    39  25  57 SE10      30.09F WCI  32
* CIRCLE       N/A       38  30  73 E11        N/A   WCI  31
* LINDSAY DVD  N/A       32  26  79 E16G22     N/A   WCI  21
* NAVAJO       N/A       31  19  61 SE18G23    N/A   WCI  19
* SACO         N/A       32  24  72 E12G17     N/A   WCI  23
$$

MTZ028>042-056>058-171700-
SOUTHCENTRAL AND SOUTHEAST MONTANA
CITY           SKY/WX    TMP DP  RH WIND       PRES   REMARKS
BAKER          CLOUDY    34  28  79 SE23      30.08F WCI  22
BILLINGS       PTSUNNY   43  34  71 VRB6      29.97F
LIVINGSTON     SUNNY     46  28  50 VRB7      29.92F
MILES CITY     SUNNY     45  34  65 S10       30.02F
* EKALAKA APT  SUNNY     36  28  73 E17G24    30.02S WCI  26
* LAUREL APT   PTCLDY    41  28  60 N/A        N/A
* ROUNDUP APT  PTSUNNY   37  36  96 S5         N/A   WCI  33
* HYSHAM       N/A       45  31  58 SE2        N/A
* LAME DEER    N/A       40  33  76 S10        N/A   WCI  34
* REED POINT   N/A       37  36  96 VRB2       N/A
* ROSCOE HILL  N/A       42  25  51 E4         N/A
$$

REGIONAL REPORTS...DAKOTAS
CITY           SKY/WX    TMP DP  RH WIND       PRES   REMARKS
WILLISTON      CLOUDY    32  25  75 SE18      30.18F WCI  21
DICKINSON      PTSUNNY   36  21  54 S21G28    30.15S WCI  25
CROSBY         CLOUDY    30  18  61 S23G29    30.19F WCI  17
TIOGA          CLOUDY    27  19  72 SE16G22   30.23F WCI  15
WATFORD CITY   CLOUDY    32  18  56 SE17      30.16F WCI  21
BISMARCK       CLOUDY    32  16  52 S9        30.30F WCI  24
GRAND FORKS    SUNNY     34  18  52 N7        30.37S WCI  28
FARGO          SUNNY     36  19  50 NW7       30.34F WCI  30
BUFFALO SD     PTCLDY    30  28  92 SE18      30.05F WCI  18
RAPID CITY     CLOUDY    37  28  70 S21       30.13F WCI  26
$$

REGIONAL REPORTS...WYOMING/IDAHO/WASHINGTON
CITY           SKY/WX    TMP DP  RH WIND       PRES   REMARKS
GILLETTE       PTCLDY    43  34  71 S23       30.01S
SHERIDAN       PTSUNNY   39  36  89 S5        30.01F WCI  35
CODY           SUNNY     45  28  51 CALM      29.96F
YELLOWSTONE LA SUNNY     27  10  49 E5        30.06S WCI  21
SALMON         CLOUDY    43  21  42 N5        29.96F
MULLAN PASS    LGT SNOW  30  30 100 S5        29.83S VSB M1/4 WCI  25
SAND POINT     N/A       45  45 100 CALM      29.85F
SPOKANE        LGT RAIN  45  43  93 S10       29.83F
$$

REGIONAL REPORTS...ALBERTA
CITY           SKY/WX    TMP DP  RH WIND       PRES   REMARKS
CALGARY        FOG       30  28  92 S6        29.76S WCI  24
LETHBRIDGE     PTSUNNY   41  36  82 SW9       29.78S
MEDICINE HAT   PTSUNNY   41  36  82 N6        29.83F
EDMONTON       SNOW      27  23  85 E16       29.85F WCI  15
WATERTON GATE  N/A       39  32  76 SW13G21    N/A   WCI  31
CARDSTON       N/A       39  36  89 S5         N/A   WCI  35
MILK RIVER     N/A       45  34  65 SW12G21    N/A
$$

REGIONAL REPORTS...SASKATCHEWAN
CITY           SKY/WX    TMP DP  RH WIND       PRES   REMARKS
SWIFT CURRENT  CLOUDY    28  25  89 SE22G29   29.95S WCI  14
MOOSE JAW      PTSUNNY   32  18  56 SE21G29   30.12F WCI  20
REGINA         CLOUDY    30  16  56 SE25G31   30.18F WCI  16
VAL MARIE      N/A       34  25  70 SE21G26    N/A   WCI  22
ASSINIBOIA     N/A       32  23  69 SE18G25    N/A   WCI  21
CORONACH       N/A       34  23  64 SE18G24    N/A   WCI  23

$$




USA.gov is the U.S. government's official web portal to all federal, state and local government web resources and services.